Showing default

LEMUR 2 TILLINFINITY, 63356

Orbit data source: Space-Track

LEMUR 2 TILLINFINITY, 63356 is a payload satellite owned by OroraTech (US) in SSO that was launched on Wed, 26 Mar 2025 UTC via an ELECTRON launch vehicle from the Rocket Lab Launch Complex (RLLC). Payload-class satellites include a variety of spacecraft equipped with specific instruments for various scientific and technological missions. These include communications satellites like Starlink; space stations such as the ISS; scientific satellites like the Hubble; Earth observation satellites from companies like Planet Labs, Umbra, and HawkEye 360; GPS; miniature CubeSats for education and research; and military/defense satellites.

Loading next visibility...
Identifier
63356, 2025-061F
Orbit
SSO
Last TLE update
13 hours ago
Origin
Manufacturer
Spire/Glasgow
Mission
Operational Commercial Imaging
Bus & Motor
CUBESAT 6U, Unknown motor
Mass
~15 kg wet, ~15 kg dry
Launch date (UTC)
2025-03-26 (3 months ago)
Launch vehicle
ELECTRON
Launch site
Rocket Lab Launch Complex (RLLC)
Object type
Payload
Rocket body
Debris
Shape & HBR
Box + 2 Pan, 0.4 m
Radar Cross Section
0.065 m², Medium (>0.1 m² and < 1m²)

Expand to show TLE details & history

TLE from 13 hours ago
0 LEMUR 2 TILLINFINITY
1 63356U 25061F   25188.82684884  .00002788  00000-0  17093-3 0  9997
2 63356  97.5184 163.6418 0019613 359.5256   0.5952 15.10821384 15575
Epoch: 2025-07-07T19:50Z
TLE epoch observation values (Epoch: 2025-07-07T19:50:39.739Z)
Latitude
-0.00002°
Longitude
-60.05438°
Altitude
523.21 km
Speed
7.609 km/s
True Right ascension
10h 54m 34s
True Declination
0° 00' 00"
Sunlit
Object was in daylight at epoch
Visualization orbit readout
Latitude
52.11707°
Longitude
-69.23705°
Altitude
534.38 km
Speed
7.605 km/s
Apparent Right ascension
09h 32m 32s
Apparent Declination
8° 36' 24"
Sunlit
Object is in daylight
Visualization observer readout
Local Sidereal Time
20:53:17
Azimuth
347.169° N
Elevation
-40.634°
Doppler factor
1
Orbital elements
Apogee altitude
544.227 km
Perigee altitude
517.126 km
Semi-major axis
6,908.814 km
Eccentricity
0.00196
Inclination
97.5184°
RAAN
163.6418°
Arg. of periapsis
359.5256°
True anomaly
Unknown
Mean anomaly
0.5952°
Eccentric anomaly
Unknown
Mean motion
3.77953 °/min
Orbital period
95.25 mins
BSTAR
0.00017093
Loading maneuver chart data...
Loading SW <> Apogee altitude chart data...
Loading historical data...
Loading historical data...
Loading historical data...
Loading historical data...
Loading historical data...
Loading historical data...
Loading historical data...

LEMUR 2 TILLINFINITY Visibility forecast

Observer location: undefined°, undefined°

Span
Click to sort rows by Start time (UTC) header in descending order
Start Az.
Max El. time (UTC)
Max El. Az.
Max El.
End time (UTC)
End Az.
6 mins2025-07-08 10:43:30.681Z36.27° NE2025-07-08 10:46:30.681Z108.857° ESE30.473°2025-07-08 10:49:30.681Z164.182° S
5 mins2025-07-08 23:00:30.681Z218.576° SW2025-07-08 23:02:30.681Z270.078° WNW26.01°2025-07-08 23:05:30.681Z324.4° NNW
|